When you browse on this site, cookies collect data to enhance your experience and personalize the content and advertising you see.
Visit our Privacy Policy to learn more. By continuing to use the site, you agree to this use of cookies and data.
  • In Lithuania
  • List of Countries
  • For 7 days
  • Water Temperature
  • Satellite Maps
  • Weather Map
  • Weather Widgets
  • user-avatar
    Login

    Hourly Weather Novospasskoe

    Today, 19 March, Tuesday

    Time Temperature Precipitation Wind Pressure Humidity
    00:00 -1°C° 0 mm 6 mps 749 mmHg 98%
    01:00 -1°C° 0 mm 6 mps 748 mmHg 96%
    02:00 -2°C° 0 mm 6 mps 748 mmHg 93%
    03:00 -2°C° 0 mm 6 mps 748 mmHg 92%
    04:00 -2°C° 0 mm 6 mps 748 mmHg 91%
    05:00 -2°C° 0 mm 6 mps 748 mmHg 89%
    06:00 -2°C° 0 mm 6 mps 747 mmHg 88%
    07:00 -2°C° 0 mm 6 mps 747 mmHg 89%
    08:00 -2°C° 0 mm 6 mps 748 mmHg 90%
    09:00 -1°C° 0 mm 7 mps 748 mmHg 92%
    10:00 -1°C° 0 mm 6 mps 748 mmHg 94%
    11:00 -1°C° 0 mm 6 mps 748 mmHg 97%
    12:00 -1°C° 0 mm 6 mps 748 mmHg 99%
    13:00 -1°C° 0 mm 6 mps 748 mmHg 99%
    14:00 -1°C° 0 mm 6 mps 749 mmHg 99%
    15:00 0°C° 0 mm 4 mps 749 mmHg 99%
    16:00 0°C° 0.1 mm 4 mps 749 mmHg 99%
    17:00 0°C° 0.1 mm 4 mps 749 mmHg 99%
    18:00 0°C° 0.1 mm 5 mps 749 mmHg 99%
    19:00 0°C° 0 mm 4 mps 749 mmHg 99%
    20:00 0°C° 0 mm 4 mps 749 mmHg 99%
    21:00 0°C° 0 mm 3 mps 749 mmHg 98%
    22:00 0°C° 0.1 mm 3 mps 749 mmHg 98%
    23:00 0°C° 0.1 mm 3 mps 749 mmHg 98%

    Tomorrow, 20 March, Wednesday

    Time Temperature Precipitation Wind Pressure Humidity
    00:00 +1°C° 0.1 mm 2 mps 749 mmHg 98%
    01:00 +1°C° 0.1 mm 2 mps 749 mmHg 98%
    02:00 +1°C° 0.1 mm 2 mps 749 mmHg 98%
    03:00 +1°C° 0.1 mm 2 mps 749 mmHg 98%
    04:00 +1°C° 0 mm 2 mps 749 mmHg 98%
    05:00 +1°C° 0 mm 2 mps 749 mmHg 98%
    06:00 -1°C° 0 mm 2 mps 749 mmHg 97%
    07:00 +1°C° 0 mm 2 mps 749 mmHg 97%
    08:00 +1°C° 0 mm 2 mps 750 mmHg 96%
    09:00 +1°C° 0 mm 2 mps 750 mmHg 96%
    10:00 +1°C° 0 mm 2 mps 750 mmHg 96%
    11:00 +2°C° 0 mm 2 mps 750 mmHg 97%
    12:00 +1°C° 0 mm 3 mps 750 mmHg 98%
    13:00 +1°C° 0.1 mm 3 mps 750 mmHg 97%
    14:00 +1°C° 0.1 mm 3 mps 750 mmHg 96%
    15:00 +2°C° 0.1 mm 2 mps 750 mmHg 95%
    16:00 +2°C° 0 mm 2 mps 750 mmHg 95%
    17:00 +2°C° 0 mm 2 mps 750 mmHg 94%
    18:00 +1°C° 0 mm 2 mps 750 mmHg 94%
    19:00 +1°C° 0 mm 2 mps 750 mmHg 92%
    20:00 -1°C° 0 mm 2 mps 751 mmHg 91%
    21:00 -1°C° 0 mm 2 mps 751 mmHg 89%
    22:00 -1°C° 0 mm 2 mps 751 mmHg 90%
    23:00 -2°C° 0 mm 2 mps 751 mmHg 90%

    Day after tomorrow, 21 March, Thursday

    Time Temperature Precipitation Wind Pressure Humidity
    00:00 -2°C° 0 mm 2 mps 751 mmHg 91%
    01:00 -2°C° 0 mm 2 mps 750 mmHg 90%
    02:00 -4°C° 0 mm 3 mps 750 mmHg 90%
    03:00 -4°C° 0 mm 3 mps 750 mmHg 89%
    04:00 -4°C° 0 mm 3 mps 750 mmHg 88%
    05:00 -4°C° 0 mm 3 mps 749 mmHg 88%
    06:00 -4°C° 0 mm 3 mps 749 mmHg 87%
    07:00 -2°C° 0 mm 3 mps 748 mmHg 85%
    08:00 -3°C° 0 mm 4 mps 748 mmHg 83%
    09:00 -2°C° 0 mm 5 mps 748 mmHg 81%
    10:00 -2°C° 0.2 mm 5 mps 747 mmHg 84%
    11:00 -2°C° 0.2 mm 5 mps 747 mmHg 87%
    12:00 -1°C° 0.2 mm 5 mps 747 mmHg 90%
    13:00 -1°C° 0.3 mm 5 mps 746 mmHg 91%
    14:00 -1°C° 0.3 mm 5 mps 746 mmHg 93%
    15:00 0°C° 0.3 mm 4 mps 746 mmHg 94%
    16:00 0°C° 0.1 mm 5 mps 746 mmHg 91%
    17:00 0°C° 0.1 mm 5 mps 746 mmHg 88%
    18:00 0°C° 0.1 mm 5 mps 746 mmHg 85%
    19:00 -1°C° 0 mm 5 mps 746 mmHg 86%
    20:00 -1°C° 0 mm 4 mps 747 mmHg 86%
    21:00 -2°C° 0 mm 4 mps 747 mmHg 87%
    22:00 -2°C° 0 mm 4 mps 747 mmHg 88%
    23:00 -1°C° 0 mm 3 mps 747 mmHg 89%

    22 March, Friday

    Time Temperature Precipitation Wind Pressure Humidity
    00:00 -1°C° 0 mm 3 mps 747 mmHg 90%
    01:00 -1°C° 0 mm 3 mps 747 mmHg 90%
    02:00 -1°C° 0 mm 3 mps 747 mmHg 89%
    03:00 -1°C° 0 mm 2 mps 747 mmHg 89%
    04:00 -1°C° 0 mm 3 mps 747 mmHg 90%
    05:00 -1°C° 0 mm 3 mps 746 mmHg 90%
    06:00 -1°C° 0 mm 3 mps 746 mmHg 91%
    07:00 -2°C° 0 mm 4 mps 746 mmHg 90%
    08:00 -1°C° 0 mm 4 mps 745 mmHg 89%
    09:00 -1°C° 0 mm 4 mps 745 mmHg 89%
    10:00 0°C° 0.1 mm 5 mps 744 mmHg 91%
    11:00 -1°C° 0.1 mm 6 mps 743 mmHg 92%
    12:00 0°C° 0.1 mm 7 mps 742 mmHg 94%
    13:00 0°C° 0.1 mm 7 mps 741 mmHg 89%
    14:00 +2°C° 0.1 mm 7 mps 741 mmHg 84%
    15:00 +3°C° 0.1 mm 7 mps 741 mmHg 79%
    16:00 +2°C° 0 mm 7 mps 741 mmHg 75%
    17:00 +2°C° 0 mm 6 mps 741 mmHg 71%
    18:00 +1°C° 0 mm 6 mps 741 mmHg 67%
    19:00 -1°C° 0 mm 6 mps 742 mmHg 69%
    20:00 -2°C° 0 mm 6 mps 742 mmHg 71%
    21:00 -3°C° 0 mm 6 mps 743 mmHg 74%
    22:00 -3°C° 0 mm 7 mps 743 mmHg 75%
    23:00 -3°C° 0 mm 7 mps 743 mmHg 77%

    23 March, Saturday

    Time Temperature Precipitation Wind Pressure Humidity
    00:00 -3°C° 0 mm 7 mps 743 mmHg 78%
    01:00 -3°C° 0 mm 7 mps 743 mmHg 78%
    02:00 -3°C° 0 mm 7 mps 744 mmHg 79%
    03:00 -4°C° 0 mm 8 mps 744 mmHg 79%
    04:00 -3°C° 0 mm 7 mps 744 mmHg 80%
    05:00 -3°C° 0 mm 7 mps 745 mmHg 81%
    06:00 -3°C° 0 mm 7 mps 745 mmHg 82%
    07:00 -2°C° 0 mm 7 mps 746 mmHg 81%
    08:00 -2°C° 0 mm 6 mps 746 mmHg 80%
    09:00 -2°C° 0 mm 6 mps 747 mmHg 79%
    10:00 -2°C° 0 mm 6 mps 747 mmHg 77%
    11:00 -1°C° 0 mm 6 mps 747 mmHg 75%
    12:00 0°C° 0 mm 5 mps 748 mmHg 72%
    13:00 0°C° 0 mm 5 mps 748 mmHg 71%
    14:00 +1°C° 0 mm 5 mps 748 mmHg 71%
    15:00 +1°C° 0 mm 4 mps 748 mmHg 70%
    16:00 +2°C° 0 mm 3 mps 747 mmHg 73%
    17:00 +1°C° 0 mm 3 mps 747 mmHg 76%
    18:00 +2°C° 0 mm 2 mps 747 mmHg 80%
    19:00 +1°C° 0 mm 2 mps 747 mmHg 82%
    20:00 +1°C° 0 mm 2 mps 747 mmHg 84%
    21:00 -1°C° 0 mm 2 mps 747 mmHg 86%
    22:00 +1°C° 0 mm 2 mps 747 mmHg 84%
    23:00 0°C° 0 mm 3 mps 746 mmHg 83%

    24 March, Sunday

    Time Temperature Precipitation Wind Pressure Humidity
    00:00 0°C° 0 mm 3 mps 746 mmHg 82%
    01:00 0°C° 0 mm 3 mps 745 mmHg 83%
    02:00 0°C° 0 mm 4 mps 745 mmHg 84%
    03:00 0°C° 0 mm 4 mps 744 mmHg 85%
    04:00 0°C° 0.1 mm 4 mps 744 mmHg 89%
    05:00 +1°C° 0.1 mm 5 mps 744 mmHg 92%
    06:00 +1°C° 0.1 mm 5 mps 743 mmHg 96%
    07:00 +2°C° 0.1 mm 5 mps 744 mmHg 93%
    08:00 +2°C° 0.1 mm 6 mps 744 mmHg 89%
    09:00 +2°C° 0.1 mm 6 mps 744 mmHg 86%
    10:00 +2°C° 0 mm 7 mps 745 mmHg 76%
    11:00 +2°C° 0 mm 7 mps 745 mmHg 66%
    12:00 +2°C° 0 mm 7 mps 746 mmHg 56%
    13:00 +3°C° 0 mm 7 mps 746 mmHg 55%
    14:00 +3°C° 0 mm 6 mps 746 mmHg 54%
    15:00 +3°C° 0 mm 6 mps 746 mmHg 52%
    16:00 +3°C° 0 mm 5 mps 746 mmHg 56%
    17:00 +3°C° 0 mm 4 mps 746 mmHg 59%
    18:00 +2°C° 0 mm 3 mps 746 mmHg 62%
    19:00 +2°C° 0 mm 3 mps 747 mmHg 65%
    20:00 +1°C° 0 mm 3 mps 747 mmHg 67%
    21:00 0°C° 0 mm 3 mps 747 mmHg 70%
    22:00 +1°C° 0 mm 2 mps 747 mmHg 71%
    23:00 -1°C° 0 mm 2 mps 747 mmHg 72%
    Show more